Location: Caltech
(34.1382°N, 118.1253°W)
Time: 20:44:16
(UTC-07:00)

ARGOS - Visible Passes

Search period start: 31 July 2014 00:00
Search period end: 10 August 2014 00:00
Orbit: 821 x 835 km, 98.8° (Epoch: 31 July)

Date Brightness Start Highest point End Pass type
(mag) Time Alt. Az. Time Alt. Az. Time Alt. Az.
31 Jul 3.6 21:55:10 39° E 21:55:54 41° ENE 22:00:54 10° N visible
31 Jul 5.1 23:36:42 20° W 23:36:42 20° W 23:40:09 10° NW visible
01 Aug 4.2 21:36:36 26° E 21:37:38 28° ENE 21:42:07 10° NNE visible
01 Aug 4.5 23:18:08 30° W 23:18:08 30° W 23:22:25 10° NW visible
02 Aug 4.7 21:18:01 17° E 21:19:24 19° ENE 21:23:03 10° NNE visible
02 Aug 3.9 22:59:33 46° W 22:59:33 46° W 23:04:23 10° NNW visible
03 Aug 5.1 20:59:27 11° E 21:01:14 13° ENE 21:03:26 10° NE visible
03 Aug 3.2 22:40:59 71° W 22:40:59 71° W 22:46:09 10° NNW visible
04 Aug 3.0 22:22:24 76° ENE 22:22:24 76° ENE 22:27:45 10° N visible
05 Aug 3.4 22:03:50 49° E 22:04:03 50° ENE 22:09:13 10° N visible
05 Aug 5.4 23:45:22 16° W 23:45:22 16° W 23:47:53 10° NW visible
06 Aug 3.9 21:45:16 33° E 21:45:45 33° ENE 21:50:30 10° N visible
06 Aug 4.9 23:26:48 25° W 23:26:48 25° W 23:30:22 10° NW visible
07 Aug 4.4 21:26:42 22° E 21:27:30 23° ENE 21:31:35 10° NNE visible
07 Aug 4.3 23:08:14 37° WNW 23:08:14 37° WNW 23:12:27 10° NNW visible
08 Aug 4.9 21:08:08 14° E 21:09:19 15° ENE 21:12:17 10° NNE visible
08 Aug 3.7 22:49:40 55° WNW 22:49:40 55° WNW 22:54:17 10° NNW visible
09 Aug 3.2 22:31:06 74° NNW 22:31:06 74° NNW 22:35:58 10° NNW visible
